[[{"header":{"parameterUnit":"m.s-1","parameterCategory":1,"la1":30.2991,"la2":30.254,"lo1":-89.0895,"lo2":-89.0444,"dy":0.0017,"dx":0.0017,"nx":28,"ny":28,"refTime":"2025-11-05T03:00:00:Z","depth":0,"parameterNumber":2,"parameterNumberName":"U-component_of_WINDS"},"data":[0,0,0,0,0,0,0,0,0,0,0,0,0,0,0,0,0,0,0,0,0,0,0,0,0,0,0,0,0,0,0,0,0,0,0,0,0,0,0,0,0,0,0,0,0,0,0,0,0,0,0,0,0,0,0,0,0,0,-4.4934,-4.4934,0,-4.4962,-4.4963,-4.4963,-4.4889,-4.4887,-4.4884,-4.4882,-4.4911,-4.4914,-4.4917,0,0,0,0,0,0,0,0,0,0,0,0,0,-4.4813,-4.4816,-4.4934,-4.4934,-4.4934,-4.4962,-4.4963,-4.4963,-4.4889,-4.4887,-4.4884,-4.4881,-4.491,-4.4914,-4.4917,0,0,0,0,0,0,0,0,0,0,0,0,0,-4.4856,-4.4816,-4.4933,-4.4901,-4.4898,-4.4962,-4.4963,-4.4963,-4.489,-4.4886,-4.4883,-4.488,-4.4909,-4.4914,-4.4918,-4.5015,0,0,-4.4931,-4.4933,0,0,0,0,0,0,0,0,-4.4854,-4.4861,-4.4905,-4.4903,-4.49,-4.4918,-4.4931,-4.4981,-4.4891,-4.4893,-4.4882,-4.4878,-4.4917,-4.492,-4.4933,-4.5016,-4.5018,-4.4932,-4.4935,-4.4936,-4.4938,0,0,0,0,0,0,0,-4.4851,-4.4859,-4.4945,-4.4906,-4.4903,-4.4884,-4.4887,-4.494,-4.4924,-4.4893,-4.4887,-4.4892,-4.4915,-4.4929,-4.4933,-4.5018,-4.4932,-4.4936,-4.4938,-4.494,-4.5179,-4.5183,0,0,0,0,0,0,-4.4852,-4.4857,-4.4944,-4.4946,-4.4868,-4.4889,-4.4892,-4.4916,-4.4923,-4.4921,-4.4895,-4.4888,-4.4923,-4.4928,-4.4934,-4.5046,-4.4936,-4.4941,-4.4943,-4.5176,-4.518,-4.5184,0,0,0,0,0,0,-4.485,-4.4861,-4.4943,-4.49,-4.4909,-4.4895,-4.4923,-4.4919,-4.4933,-4.4925,-4.4921,-4.4913,-4.4921,-4.4928,-4.4995,-4.5046,-4.4943,-4.4947,-4.5171,-4.5177,-4.5182,-4.5271,0,0,0,0,0,0,-4.4847,-4.486,-4.4897,-4.4901,-4.4912,-4.5004,-4.4926,-4.4922,-4.4941,-4.4933,-4.4941,-4.4939,-4.4919,-4.4989,-4.4999,-4.505,-4.495,-4.5167,-4.5174,-4.5181,-4.5264,-4.5279,-4.5293,0,0,0,0,0,-4.4843,-4.4922,-4.49,-4.4911,-4.4958,-4.5007,-4.5013,-4.4988,-4.4945,-4.4982,-4.4976,-4.4938,-4.5039,-4.4996,-4.5007,-4.506,-4.5163,-4.5172,-4.518,-4.5257,-4.5276,-4.5292,0,0,0,0,0,0,-4.4924,-4.4922,-4.4897,-4.498,-4.4994,-4.4994,-4.504,-4.5009,-4.5036,-4.5027,-4.4995,-4.4998,-4.507,-4.5072,-4.5024,-4.5153,-4.5094,-4.5105,-4.5149,-4.5167,-4.5181,-4.5178,-4.4954,0,0,0,0,0,-4.4952,-4.4993,-4.4988,-4.5062,-4.507,-4.5054,-4.5075,-4.5054,-4.5067,-4.5073,-4.5072,-4.5087,-4.5121,-4.5144,-4.5176,-4.5265,-4.5264,-4.5306,-4.5321,-4.5333,-4.5342,-4.5386,-4.5404,-4.5212,-4.5212,-4.5211,0,0,-4.501,-4.5013,-4.5041,-4.5078,-4.5087,-4.5128,-4.5059,-4.5107,-4.5137,-4.508,-4.5142,-4.5143,-4.5156,-4.5234,-4.5268,-4.5238,-4.5395,-4.5343,-4.5353,-4.5355,-4.5397,-4.5415,-4.5431,-4.5217,-4.5216,-4.5215,0,0,-4.5135,-4.5143,-4.5204,-4.5214,-4.5227,-4.5216,-4.5231,-4.5235,-4.5233,-4.5295,-4.5253,-4.5288,-4.5349,-4.536,-4.5373,-4.5502,-4.5467,-4.5513,-4.5587,-4.5631,-4.5646,-4.5659,-4.5702,-4.5719,-4.5523,-4.5523,-4.5523,0,-4.5205,-4.5266,-4.5239,-4.5289,-4.5305,-4.5256,-4.5316,-4.5327,-4.5351,-4.5363,-4.533,-4.5403,-4.5409,-4.5487,-4.5518,-4.5532,-4.5546,-4.5511,-4.5646,-4.5659,-4.5671,-4.5712,-4.5728,-4.5528,-4.5528,-4.5527,-4.5527,0,-4.5349,-4.5393,-4.544,-4.5463,-4.5485,-4.5541,-4.5521,-4.5547,-4.5525,-4.5517,-4.558,-4.5585,-4.5616,-4.5633,-4.5613,-4.5708,-4.5689,-4.5652,-4.5591,-4.5695,-4.5733,-4.5748,-4.5536,-4.5534,-4.5533,-4.5531,0,0,-4.5526,-4.5533,-4.555,-4.5559,-4.557,-4.5603,-4.5655,-4.5685,-4.5706,-4.5725,-4.5766,-4.5819,-4.5783,-4.5799,-4.5779,-4.5818,-4.5916,-4.5775,-4.5775,-4.5799,-4.6018,-4.6044,-4.6062,-4.5894,-4.5897,-4.5899,-4.6016,0,-4.5647,-4.5736,-4.5713,-4.5802,-4.584,-4.5793,-4.5839,-4.585,-4.5844,-4.5875,-4.5869,-4.5905,-4.5858,-4.5866,-4.5903,-4.5896,-4.5959,-4.5888,-4.593,-4.5932,-4.5925,-4.6083,-4.611,-4.622,-4.6031,-4.6033,-4.6035,0,-4.5801,-4.5823,-4.5915,-4.5918,-4.5933,-4.5974,-4.5998,-4.603,-4.6041,-4.6034,-4.6051,-4.6023,-4.6073,-4.6014,-4.6082,-4.6034,-4.605,-4.605,-4.6054,-4.6054,-4.5988,-4.6085,-4.6255,-4.627,-4.6059,-4.6057,-4.6055,0,-4.5916,-4.597,-4.6031,-4.6041,-4.6047,-4.6076,-4.608,-4.6088,-4.6107,-4.6128,-4.614,-4.6168,-4.6182,-4.6204,-4.6183,-4.6143,-4.6254,-4.6193,-4.6247,-4.6248,-4.627,-4.6268,-4.6442,-4.6286,-4.6286,-4.6286,-4.6285,0,-4.6052,-4.611,-4.6083,-4.6121,-4.6183,-4.6156,-4.6218,-4.6217,-4.6224,-4.626,-4.6223,-4.6257,-4.6229,-4.6261,-4.6246,-4.6303,-4.6311,-4.6305,-4.6299,-4.6306,-4.6307,-4.6314,-4.6305,-4.629,-4.6289,-4.6288,-4.6288,0,-4.6191,-4.6176,-4.6239,-4.6239,-4.6241,-4.6286,-4.6286,-4.632,-4.6311,-4.6357,-4.6366,-4.6352,-4.6387,-4.637,-4.6407,-4.6397,-4.6469,-4.6455,-4.6465,-4.646,-4.6514,-4.6508,-4.6696,-4.6718,-4.6551,-4.6553,-4.6554,0,-4.6277,-4.632,-4.6325,-4.6345,-4.6351,-4.6386,-4.6405,-4.638,-4.6401,-4.6416,-4.6448,-4.648,-4.6504,-4.6562,-4.6555,-4.6582,-4.6567,-4.6631,-4.657,-4.6575,-4.6564,-4.656,-4.6563,-4.6642,-4.6644,-4.6646,-4.6647,0,-4.6431,-4.6421,-4.6449,-4.6475,-4.6497,-4.6516,-4.6532,-4.6551,-4.6527,-4.6552,-4.6587,-4.6605,-4.6642,-4.6674,-4.6697,-4.67,-4.6669,-4.6666,-4.668,-4.6685,-4.6688,-4.6684,-4.6495,-4.6661,-4.666,-4.6659,-4.6658,-4.6658,-4.6544,-4.6579,-4.6587,-4.6619,-4.6628,-4.6643,-4.6674,-4.6669,-4.6698,-4.6725,-4.6709,-4.675,-4.6759,-4.6787,-4.6795,-4.6825,-4.68,-4.682,-4.6824,-4.6829,-4.6834,-4.6686,-4.683,-4.683,-4.6829,-4.6829,-4.6829,0,-4.6693,-4.6696,-4.6726,-4.6748,-4.6773,-4.6742,-4.6757,-4.678,-4.6816,-4.6827,-4.6851,-4.689,-4.692,-4.6915,-4.6942,-4.6968,-4.6954,-4.6975,-4.6971,-4.6972,-4.6858,-4.6842,-4.6986,-4.6986,-4.6986,-4.6986,-4.6986,-4.6986,-4.6773,-4.6829,-4.682,-4.688,-4.6882,-4.6921,-4.6932,-4.6946,-4.6954,-4.6999,-4.7024,-4.7021,-4.7025,-4.7052,-4.7077,-4.7075,-4.7085,-4.7112,-4.7104,-4.6996,-4.6981,-4.6966,-4.695,-4.7115,-4.7115,-4.7215,-4.7216,-4.7217]},{"header":{"parameterUnit":"m.s-1","parameterCategory":1,"la1":30.2991,"la2":30.254,"lo1":-89.0895,"lo2":-89.0444,"dy":0.0017,"dx":0.0017,"nx":28,"ny":28,"refTime":"2025-11-05T03:00:00:Z","depth":0,"parameterNumber":3,"parameterNumberName":"V-component_of_WINDS"},"data":[0,0,0,0,0,0,0,0,0,0,0,0,0,0,0,0,0,0,0,0,0,0,0,0,0,0,0,0,0,0,0,0,0,0,0,0,0,0,0,0,0,0,0,0,0,0,0,0,0,0,0,0,0,0,0,0,0,0,1.0326,1.0328,0,1.0519,1.0522,1.0524,1.0527,1.0525,1.0522,1.052,1.0722,1.073,1.0737,0,0,0,0,0,0,0,0,0,0,0,0,0,0.9965,0.9971,1.0325,1.0328,1.033,1.0519,1.0522,1.0524,1.0528,1.0525,1.0522,1.0519,1.072,1.0729,1.0738,0,0,0,0,0,0,0,0,0,0,0,0,0,1.0136,0.9973,1.0325,1.0355,1.0359,1.0519,1.0522,1.0525,1.0528,1.0525,1.0521,1.0518,1.0717,1.0728,1.0739,1.0883,0,0,1.0774,1.0779,0,0,0,0,0,0,0,0,1.0127,1.015,1.0348,1.0353,1.0358,1.0495,1.0469,1.0645,1.0529,1.0464,1.052,1.0516,1.065,1.0667,1.0711,1.0893,1.0901,1.0775,1.0782,1.0787,1.0791,0,0,0,0,0,0,0,1.0115,1.0141,1.0402,1.0351,1.0357,1.036,1.0381,1.0502,1.0575,1.047,1.047,1.0493,1.0652,1.07,1.0716,1.0904,1.0775,1.0785,1.0792,1.0797,1.1221,1.1226,0,0,0,0,0,0,1.0096,1.0131,1.0396,1.0408,1.0231,1.037,1.0393,1.0455,1.0574,1.0589,1.0496,1.0492,1.0682,1.0703,1.0723,1.0906,1.0787,1.0798,1.0805,1.1217,1.1222,1.1227,0,0,0,0,0,0,1.0088,1.012,1.0388,1.027,1.0304,1.038,1.045,1.0461,1.0509,1.0594,1.0607,1.0531,1.068,1.0707,1.0845,1.0912,1.0803,1.0814,1.1212,1.1219,1.1225,1.1267,0,0,0,0,0,0,1.0078,1.0117,1.017,1.0271,1.0311,1.0505,1.0454,1.0467,1.0528,1.0526,1.0631,1.0645,1.068,1.0828,1.0856,1.0926,1.0823,1.1206,1.1215,1.1223,1.126,1.1275,1.1287,0,0,0,0,0,1.0065,1.0174,1.0173,1.0205,1.0379,1.0509,1.0532,1.0569,1.0533,1.059,1.0645,1.0641,1.0899,1.0842,1.0874,1.0948,1.1202,1.1212,1.1222,1.1254,1.1272,1.1286,0,0,0,0,0,0,1.0079,1.0188,1.0188,1.0332,1.0411,1.0509,1.0581,1.0585,1.0676,1.067,1.0713,1.0737,1.0876,1.0925,1.0859,1.1097,1.1047,1.1064,1.1061,1.1078,1.1091,1.1078,1.0832,0,0,0,0,0,1.0099,1.0194,1.0283,1.0402,1.0442,1.0505,1.0562,1.0584,1.0668,1.0702,1.0767,1.085,1.0951,1.1016,1.1113,1.1266,1.1293,1.1333,1.1347,1.1357,1.1373,1.1464,1.1486,1.126,1.1259,1.1259,0,0,1.0141,1.0212,1.0269,1.0407,1.0471,1.0571,1.0533,1.0638,1.0715,1.0718,1.0854,1.0905,1.1001,1.1149,1.1217,1.1195,1.1441,1.137,1.1377,1.1388,1.1477,1.1498,1.1517,1.1266,1.1265,1.1264,0,0,1.0271,1.0331,1.044,1.0506,1.0603,1.0645,1.0671,1.0769,1.0804,1.094,1.0947,1.1038,1.1208,1.1279,1.1336,1.1497,1.1499,1.1527,1.1598,1.1686,1.1704,1.1721,1.1784,1.1806,1.1541,1.1541,1.1541,0,1.0312,1.0461,1.0496,1.0604,1.0668,1.0675,1.0788,1.085,1.0974,1.1019,1.0991,1.1209,1.1273,1.1442,1.1481,1.1525,1.1561,1.1517,1.1698,1.1715,1.1731,1.1792,1.1815,1.1544,1.1544,1.1544,1.1543,0,1.051,1.0614,1.0691,1.0812,1.0883,1.0993,1.1047,1.1115,1.1131,1.1177,1.1319,1.1397,1.1513,1.1553,1.1569,1.1725,1.1709,1.1689,1.164,1.1755,1.1814,1.1837,1.1549,1.1548,1.1547,1.1546,0,0,1.0655,1.0796,1.0824,1.0882,1.0992,1.1074,1.1186,1.1299,1.136,1.1445,1.1544,1.1689,1.1674,1.1739,1.1763,1.184,1.1971,1.1812,1.1815,1.1845,1.2156,1.2175,1.2201,1.1971,1.1975,1.1979,1.215,0,1.0802,1.1001,1.1037,1.1212,1.1312,1.1322,1.142,1.15,1.1546,1.164,1.169,1.1796,1.1763,1.1804,1.188,1.1939,1.2035,1.1926,1.2069,1.2073,1.205,1.223,1.225,1.2407,1.2172,1.2176,1.2179,0,1.0999,1.1092,1.1277,1.1379,1.1422,1.1509,1.1619,1.1706,1.1798,1.1827,1.1902,1.1919,1.204,1.1982,1.2152,1.2078,1.2138,1.2176,1.2183,1.2202,1.2137,1.2261,1.2458,1.2484,1.2214,1.2211,1.2209,0,1.1095,1.1265,1.14,1.1448,1.1568,1.1631,1.1683,1.1772,1.1839,1.1935,1.198,1.2088,1.2149,1.2233,1.2281,1.2233,1.245,1.2394,1.2482,1.2481,1.2531,1.2529,1.2747,1.256,1.2559,1.2559,1.2558,0,1.1258,1.1373,1.1446,1.1529,1.166,1.1701,1.1829,1.1881,1.1961,1.2057,1.207,1.2161,1.2215,1.2314,1.2351,1.2491,1.2516,1.2546,1.2556,1.2549,1.2546,1.2593,1.2586,1.2565,1.2564,1.2562,1.2561,0,1.1389,1.1441,1.159,1.1692,1.172,1.1813,1.1901,1.1985,1.203,1.2153,1.2184,1.2257,1.2376,1.243,1.2575,1.26,1.2762,1.276,1.2731,1.2736,1.2823,1.2817,1.3084,1.3125,1.2904,1.2906,1.2908,0,1.1492,1.1582,1.1694,1.1759,1.1814,1.1919,1.1988,1.2033,1.2105,1.222,1.2291,1.2409,1.2507,1.2696,1.2764,1.2877,1.2883,1.2969,1.29,1.2892,1.2893,1.289,1.2902,1.2983,1.2985,1.2987,1.2988,0,1.1673,1.1696,1.1795,1.1905,1.1988,1.2077,1.2164,1.2217,1.2276,1.2357,1.2478,1.2554,1.2704,1.2824,1.2942,1.3,1.3007,1.3009,1.3037,1.3033,1.3016,1.3034,1.2772,1.3004,1.3002,1.3001,1.3,1.3,1.1799,1.1881,1.1974,1.2086,1.2156,1.2238,1.2324,1.2381,1.2482,1.2609,1.2628,1.276,1.2854,1.3013,1.3075,1.3181,1.3161,1.3199,1.321,1.322,1.3229,1.2993,1.3201,1.3201,1.3201,1.32,1.32,0,1.1986,1.2047,1.2149,1.2272,1.2361,1.2357,1.2454,1.253,1.2645,1.2732,1.2829,1.2971,1.3088,1.3166,1.3286,1.3356,1.3362,1.3386,1.3385,1.34,1.3236,1.3204,1.3379,1.3379,1.3379,1.3379,1.3379,1.3379,1.2095,1.2236,1.227,1.2448,1.2508,1.2637,1.2694,1.2771,1.2842,1.3,1.3098,1.3147,1.3232,1.3359,1.3468,1.3488,1.3534,1.356,1.3581,1.3428,1.341,1.3392,1.3362,1.3568,1.3569,1.3736,1.3738,1.3739]}]]